CW3467 Weather Reports


Display with metric or nautical units.
time (UTC)temp
F
wind
direction
speed
MPH
gust
MPH
rain 1hr
in
rain 24hr
in
rain mn
in
humidity
%
barometer
mb
20260506220525 51 230 0.0 2.0 0.00 0.00 0.00 81 1013.6
20260506220026 51 226 0.0 2.0 0.00 0.00 0.00 81 1013.7
20260506215504 51 223 0.0 1.0 0.00 0.00 0.00 81 1013.5
20260506215006 51 222 0.0 1.0 0.00 0.00 0.00 81 1013.6
20260506214505 51 233 0.0 1.0 0.00 0.00 0.00 81 1013.5
20260506214005 51 232 0.0 1.0 0.00 0.00 0.00 81 1013.7
20260506213025 52 230 0.0 1.0 0.00 0.00 0.00 79 1013.5
20260506212504 53 226 1.0 3.0 0.00 0.00 0.00 77 1013.3
20260506212004 54 227 1.0 3.0 0.00 0.00 0.00 74 1013.4
20260506211504 54 225 1.0 3.0 0.00 0.00 0.00 74 1013.4
20260506211004 54 227 1.0 3.0 0.00 0.00 0.00 75 1013.3
20260506210505 53 230 1.0 3.0 0.00 0.00 0.00 75 1013.4
20260506210005 54 223 1.0 4.0 0.00 0.00 0.00 75 1013.2
20260506205504 54 213 1.0 4.0 0.00 0.00 0.00 75 1013.3
20260506205004 54 200 1.0 4.0 0.00 0.00 0.00 75 1013.0
20260506204504 54 190 1.0 4.0 0.00 0.00 0.00 74 1013.2
20260506204004 54 180 1.0 4.0 0.00 0.00 0.00 74 1013.1
20260506203504 54 230 1.0 3.0 0.00 0.00 0.00 73 1013.0
20260506203004 54 246 1.0 6.0 0.00 0.00 0.00 73 1012.7
20260506202505 54 238 1.0 6.0 0.00 0.00 0.00 73 1012.7
20260506202004 54 208 0.0 2.0 0.00 0.00 0.00 74 1012.7
20260506201504 55 222 0.0 1.0 0.00 0.00 0.00 74 1012.6
20260506201004 55 231 0.0 2.0 0.00 0.00 0.00 72 1012.7
20260506200504 55 228 0.0 2.0 0.00 0.00 0.00 71 1012.5
20260506200004 56 229 1.0 3.0 0.00 0.00 0.00 70 1012.4
20260506195504 56 234 1.0 3.0 0.00 0.00 0.00 70 1012.3
20260506195004 56 246 1.0 4.0 0.00 0.00 0.00 70 1012.2
20260506194505 56 248 2.0 4.0 0.00 0.00 0.00 69 1012.0
20260506194025 57 240 2.0 4.0 0.00 0.00 0.00 68 1012.0
20260506193504 57 233 1.0 4.0 0.00 0.00 0.00 66 1012.3
20260506193025 57 230 1.0 6.0 0.00 0.00 0.00 66 1011.8
20260506192504 57 237 1.0 6.0 0.00 0.00 0.00 66 1011.9
20260506192004 57 250 2.0 4.0 0.00 0.00 0.00 66 1011.7
20260506191504 57 252 2.0 7.0 0.00 0.00 0.00 66 1011.5
20260506191004 58 247 1.0 7.0 0.00 0.00 0.00 65 1011.5
20260506190504 58 242 1.0 3.0 0.00 0.00 0.00 64 1011.5
20260506190005 59 233 0.0 2.0 0.00 0.00 0.00 65 1011.5
20260506185525 59 225 0.0 3.0 0.00 0.00 0.00 64 1011.7
20260506185004 59 228 0.0 3.0 0.00 0.00 0.00 62 1011.7
20260506184504 60 225 0.0 2.0 0.00 0.00 0.00 62 1011.5
20260506184004 60 234 0.0 2.0 0.00 0.00 0.00 61 1011.3
20260506183504 60 238 0.0 2.0 0.00 0.00 0.00 65 1011.5
20260506183025 61 220 0.0 2.0 0.00 0.00 0.00 61 1011.4
20260506182504 62 225 1.0 3.0 0.00 0.00 0.00 57 1011.2
20260506182004 62 240 1.0 3.0 0.00 0.00 0.00 58 1011.2
20260506181504 62 228 1.0 3.0 0.00 0.00 0.00 58 1011.0
20260506181004 61 198 1.0 4.0 0.00 0.00 0.00 60 1011.0
20260506180504 60 177 1.0 4.0 0.00 0.00 0.00 63 1010.9
20260506180005 60 143 1.0 4.0 0.00 0.00 0.00 63 1010.9
20260506175504 58 120 2.0 4.0 0.00 0.00 0.00 64 1010.9
20260506175025 58 128 1.0 4.0 0.00 0.00 0.00 64 1010.9
20260506174504 58 180 1.0 2.0 0.00 0.00 0.00 63 1010.8
20260506174005 59 155 1.0 6.0 0.00 0.00 0.00 62 1010.9
20260506173525 59 137 2.0 6.0 0.00 0.00 0.00 60 1010.9
20260506173004 60 120 1.0 4.0 0.00 0.00 0.00 60 1010.7
20260506172504 61 44 1.0 3.0 0.00 0.00 0.00 59 1010.8
20260506172004 61 33 1.0 3.0 0.00 0.00 0.00 59 1010.7
20260506171504 61 256 1.0 4.0 0.00 0.00 0.00 60 1010.7
20260506171004 61 247 1.0 4.0 0.00 0.00 0.00 60 1010.7
20260506170504 62 235 1.0 3.0 0.00 0.00 0.00 59 1010.8
20260506170004 62 298 1.0 7.0 0.00 0.00 0.00 60 1010.8
20260506165504 62 274 1.0 7.0 0.00 0.00 0.00 59 1010.5
20260506165004 62 258 1.0 4.0 0.00 0.00 0.00 59 1010.6
20260506164525 62 272 1.0 4.0 0.00 0.00 0.00 59 1010.5
20260506164004 62 245 1.0 4.0 0.00 0.00 0.00 57 1010.6
20260506163504 63 269 1.0 7.0 0.00 0.00 0.00 56 1010.4
20260506163004 63 292 1.0 7.0 0.00 0.00 0.00 57 1010.5
20260506162525 65 293 2.0 7.0 0.00 0.00 0.00 55 1010.4
20260506162025 65 296 2.0 7.0 0.00 0.00 0.00 53 1010.4
20260506161504 65 339 2.0 9.0 0.00 0.00 0.00 53 1010.4
20260506161025 66 324 3.0 9.0 0.00 0.00 0.00 53 1010.3
20260506160504 66 304 3.0 9.0 0.00 0.00 0.00 51 1010.6
20260506160004 65 301 2.0 7.0 0.00 0.00 0.00 52 1010.3
20260506155504 67 308 2.0 8.0 0.00 0.00 0.00 48 1010.4
20260506155004 67 356 2.0 8.0 0.00 0.00 0.00 50 1010.4
20260506154504 68 43 1.0 4.0 0.00 0.00 0.00 48 1010.5
20260506154004 67 44 2.0 8.0 0.00 0.00 0.00 49 1010.3
20260506153504 66 54 2.0 8.0 0.00 0.00 0.00 48 1010.7
20260506153004 67 326 2.0 8.0 0.00 0.00 0.00 48 1010.5
20260506152504 67 287 2.0 7.0 0.00 0.00 0.00 51 1010.4
20260506152025 66 316 2.0 7.0 0.00 0.00 0.00 48 1010.4
20260506151525 66 302 1.0 6.0 0.00 0.00 0.00 49 1010.6
20260506151004 63 314 2.0 9.0 0.00 0.00 0.00 55 1010.8
20260506150504 63 313 3.0 10.0 0.00 0.00 0.00 52 1010.6
20260506150005 66 299 2.0 10.0 0.00 0.00 0.00 48 1010.8
20260506145504 66 295 2.0 7.0 0.00 0.00 0.00 48 1010.8
20260506145004 66 326 2.0 7.0 0.00 0.00 0.00 49 1010.7
20260506144504 64 356 2.0 8.0 0.00 0.00 0.00 54 1010.9
20260506144004 64 32 2.0 8.0 0.00 0.00 0.00 52 1011.0
20260506143525 65 356 2.0 7.0 0.00 0.00 0.00 52 1010.9
20260506143004 67 349 2.0 7.0 0.00 0.00 0.00 48 1010.9
20260506142504 66 48 2.0 7.0 0.00 0.00 0.00 51 1011.0
20260506142004 67 16 2.0 7.0 0.00 0.00 0.00 51 1011.0
20260506141504 67 34 2.0 8.0 0.00 0.00 0.00 52 1011.0
20260506141004 67 36 2.0 8.0 0.00 0.00 0.00 49 1011.3
20260506140525 67 4 2.0 6.0 0.00 0.00 0.00 50 1011.3
20260506140005 66 30 2.0 7.0 0.00 0.00 0.00 52 1011.4
20260506135504 66 15 3.0 10.0 0.00 0.00 0.00 52 1011.6
20260506135005 65 24 3.0 10.0 0.00 0.00 0.00 52 1011.3
20260506134504 65 26 2.0 10.0 0.00 0.00 0.00 52 1011.4
20260506134004 66 348 2.0 6.0 0.00 0.00 0.00 51 1011.3
20260506133504 66 50 2.0 7.0 0.00 0.00 0.00 52 1011.4
20260506133004 64 59 3.0 9.0 0.00 0.00 0.00 52 1011.4
20260506132504 64 41 2.0 9.0 0.00 0.00 0.00 54 1011.4
20260506132005 62 40 1.0 9.0 0.00 0.00 0.00 56 1011.3
20260506131504 62 255 1.0 6.0 0.00 0.00 0.00 60 1011.5
20260506131004 62 324 2.0 6.0 0.00 0.00 0.00 57 1011.5
20260506130504 65 328 2.0 6.0 0.00 0.00 0.00 57 1011.5
20260506130005 65 334 2.0 8.0 0.00 0.00 0.00 54 1011.5
20260506125504 64 47 3.0 11.0 0.00 0.00 0.00 55 1011.4
20260506125004 64 51 2.0 11.0 0.00 0.00 0.00 56 1011.5
20260506124525 66 49 2.0 11.0 0.00 0.00 0.00 50 1011.5
20260506124004 65 49 2.0 9.0 0.00 0.00 0.00 53 1011.6
20260506123504 65 8 2.0 7.0 0.00 0.00 0.00 52 1011.6
20260506123004 65 332 2.0 7.0 0.00 0.00 0.00 56 1011.7
20260506122504 64 13 2.0 7.0 0.00 0.00 0.00 56 1011.5
20260506122004 64 41 2.0 7.0 0.00 0.00 0.00 55 1011.6
20260506121504 64 335 2.0 7.0 0.00 0.00 0.00 56 1011.5
20260506121004 64 269 2.0 8.0 0.00 0.00 0.00 55 1011.6
20260506120504 64 296 3.0 8.0 0.00 0.00 0.00 55 1011.6
20260506120004 64 328 3.0 8.0 0.00 0.00 0.00 56 1011.8
20260506115504 63 332 2.0 7.0 0.00 0.00 0.00 52 1011.7
20260506115025 64 14 2.0 6.0 0.00 0.00 0.00 52 1011.6
20260506114504 64 344 2.0 9.0 0.00 0.00 0.00 56 1011.6
20260506114004 63 7 2.0 11.0 0.00 0.00 0.00 52 1011.8
20260506113504 62 52 2.0 11.0 0.00 0.00 0.00 56 1011.7
20260506113004 62 52 2.0 6.0 0.00 0.00 0.00 60 1011.7
20260506112504 63 320 2.0 7.0 0.00 0.00 0.00 58 1011.7
20260506112025 63 22 2.0 9.0 0.00 0.00 0.00 57 1012.1
20260506111504 62 78 2.0 9.0 0.00 0.00 0.00 57 1012.0
20260506111004 62 336 2.0 7.0 0.00 0.00 0.00 59 1012.0
20260506110525 62 354 2.0 8.0 0.00 0.00 0.00 59 1011.9
20260506110004 60 16 2.0 8.0 0.00 0.00 0.00 62 1012.0
20260506105504 61 16 2.0 6.0 0.00 0.00 0.00 59 1012.1
20260506105025 60 47 3.0 8.0 0.00 0.00 0.00 60 1012.1
20260506104504 59 47 3.0 8.0 0.00 0.00 0.00 61 1012.2
20260506104004 61 29 2.0 4.0 0.00 0.00 0.00 62 1012.1
20260506103504 59 46 2.0 8.0 0.00 0.00 0.00 65 1012.4
20260506103004 59 50 2.0 8.0 0.00 0.00 0.00 66 1012.1
20260506102504 59 54 2.0 9.0 0.00 0.00 0.00 66 1012.1
20260506102004 57 54 3.0 9.0 0.00 0.00 0.00 66 1012.2
20260506101504 58 23 2.0 7.0 0.00 0.00 0.00 62 1012.2
20260506101004 58 38 2.0 7.0 0.00 0.00 0.00 65 1012.5
20260506100504 57 52 2.0 8.0 0.00 0.00 0.00 64 1012.5
20260506100004 58 43 2.0 8.0 0.00 0.00 0.00 65 1012.4
20260506095504 57 1 2.0 6.0 0.00 0.00 0.00 70 1012.5
20260506095004 58 326 1.0 6.0 0.00 0.00 0.00 70 1012.5
20260506094504 57 24 1.0 4.0 0.00 0.00 0.00 69 1012.6
20260506094004 57 352 1.0 4.0 0.00 0.00 0.00 72 1012.4
20260506093504 57 293 1.0 3.0 0.00 0.00 0.00 71 1012.6
20260506093025 57 276 1.0 2.0 0.00 0.00 0.00 70 1012.4
20260506092525 56 338 1.0 3.0 0.00 0.00 0.00 75 1012.4
20260506092025 56 345 1.0 3.0 0.00 0.00 0.00 77 1012.5
20260506091504 56 238 1.0 4.0 0.00 0.00 0.00 74 1012.4
20260506091004 55 122 1.0 4.0 0.00 0.00 0.00 76 1012.3
20260506090504 56 123 1.0 3.0 0.00 0.00 0.00 78 1012.5
20260506090004 55 260 1.0 4.0 0.00 0.00 0.00 76 1012.3
20260506085504 55 282 1.0 4.0 0.00 0.00 0.00 76 1012.4
20260506085004 54 206 1.0 3.0 0.00 0.00 0.00 76 1012.4
20260506084504 54 217 1.0 2.0 0.00 0.00 0.00 75 1012.4
20260506084004 54 241 0.0 2.0 0.00 0.00 0.00 78 1012.4
20260506083525 54 242 0.0 2.0 0.00 0.00 0.00 76 1012.5
20260506083004 53 262 1.0 3.0 0.00 0.00 0.00 73 1012.5
20260506082504 53 258 1.0 3.0 0.00 0.00 0.00 78 1012.4
20260506082004 53 248 1.0 2.0 0.00 0.00 0.00 77 1012.5
20260506081525 53 253 0.0 2.0 0.00 0.00 0.00 76 1012.4
20260506081004 52 268 1.0 3.0 0.00 0.00 0.00 78 1012.4
20260506080504 51 267 1.0 3.0 0.00 0.00 0.00 80 1012.3
20260506073504 49 253 1.0 3.0 0.00 0.00 0.00 86 1012.6
20260506073004 49 270 0.0 2.0 0.00 0.00 0.00 86 1012.4
20260506072525 49 31 0.0 2.0 0.00 0.00 0.00 88 1012.4
20260506072004 49 247 0.0 2.0 0.00 0.00 0.00 88 1012.4
20260506071504 48 251 1.0 2.0 0.00 0.00 0.00 90 1012.3
20260506071004 47 257 1.0 3.0 0.00 0.00 0.00 91 1012.4
20260506070504 46 254 2.0 4.0 0.00 0.00 0.00 92 1012.4
20260506062504 43 234 0.0 1.0 0.00 0.00 0.00 100 1012.4
20260506062003 42 237 0.0 1.0 0.00 0.00 0.00 100 1012.3
20260506061504 42 238 0.0 1.0 0.00 0.00 0.00 100 1012.3
20260506061025 41 240 0.0 1.0 0.00 0.00 0.00 100 1012.2
20260506060525 41 233 0.0 1.0 0.00 0.00 0.00 100 1012.2
20260506051003 41 0 0.0 0.0 0.00 0.00 0.00 100 1012.0
20260506050503 41 0 0.0 0.0 0.00 0.00 0.00 100 1011.8
20260506045003 41 227 0.0 1.0 0.00 0.00 0.00 100 1011.8
20260506044504 41 226 0.0 1.0 0.00 0.00 0.00 100 1011.7
20260506044004 41 223 0.0 1.0 0.00 0.00 0.00 100 1011.7
20260506043504 41 221 0.0 1.0 0.00 0.00 0.00 100 1011.6
20260506043003 41 0 0.0 0.0 0.00 0.00 0.00 100 1011.7
20260506042524 41 224 0.0 1.0 0.00 0.00 0.00 97 1011.5
20260506042024 41 230 0.0 1.0 0.00 0.00 0.00 97 1011.5
20260506041503 42 231 0.0 1.0 0.00 0.00 0.00 97 1011.3
20260506041003 42 195 0.0 1.0 0.00 0.00 0.00 97 1011.6
20260506040503 42 203 0.0 1.0 0.00 0.00 0.00 97 1011.5
20260506040004 42 212 0.0 1.0 0.00 0.00 0.00 97 1011.4
20260506035503 41 223 0.0 1.0 0.00 0.00 0.00 97 1011.5
20260506035004 41 223 0.0 1.0 0.00 0.00 0.00 97 1011.3
20260506034524 42 226 0.0 1.0 0.00 0.00 0.00 97 1011.4
20260506034003 41 228 0.0 1.0 0.00 0.00 0.00 96 1011.4
20260506033503 42 237 0.0 1.0 0.00 0.00 0.00 96 1011.5
20260506033004 42 0 0.0 0.0 0.00 0.00 0.00 96 1011.4
20260506032504 43 219 0.0 1.0 0.00 0.00 0.00 96 1011.5
20260506032024 43 222 0.0 1.0 0.00 0.00 0.00 95 1011.5
20260506031503 43 223 0.0 1.0 0.00 0.00 0.00 96 1011.3
20260506031004 43 226 0.0 1.0 0.00 0.00 0.00 96 1011.4
20260506030504 43 224 0.0 1.0 0.00 0.00 0.00 96 1011.4
20260506030004 42 222 0.0 1.0 0.00 0.00 0.00 96 1011.3
20260506025503 42 225 0.0 1.0 0.00 0.00 0.00 97 1011.4
20260506025024 42 225 0.0 1.0 0.00 0.00 0.00 96 1011.3
20260506024504 43 226 0.0 1.0 0.00 0.00 0.00 96 1011.5
20260506024024 43 225 0.0 1.0 0.00 0.00 0.00 96 1011.2
20260506023503 43 226 0.0 1.0 0.00 0.00 0.00 96 1011.4
20260506023004 43 227 0.0 1.0 0.00 0.00 0.00 96 1011.4
20260506022503 43 228 0.0 1.0 0.00 0.00 0.00 96 1011.5
20260506022024 43 224 0.0 1.0 0.00 0.00 0.00 96 1011.4
20260506021503 43 224 0.0 1.0 0.00 0.00 0.00 96 1011.5
20260506021003 43 227 0.0 1.0 0.00 0.00 0.00 96 1011.4
20260506020504 43 226 0.0 1.0 0.00 0.00 0.00 95 1011.4
20260506020004 43 231 0.0 1.0 0.00 0.00 0.00 95 1011.5
20260506015503 44 240 0.0 1.0 0.00 0.00 0.00 95 1011.3
20260506015004 44 246 0.0 2.0 0.00 0.00 0.00 95 1011.3
20260506014504 44 233 0.0 2.0 0.00 0.00 0.00 93 1011.3
20260506014024 44 224 0.0 1.0 0.00 0.00 0.00 93 1011.3
20260506013524 45 225 0.0 1.0 0.00 0.00 0.00 93 1011.2
20260506013003 45 226 1.0 2.0 0.00 0.00 0.00 95 1011.3
20260506012503 44 225 1.0 2.0 0.00 0.00 0.00 95 1011.2
20260506012004 44 227 1.0 2.0 0.00 0.00 0.00 95 1011.0
20260506011524 44 231 1.0 2.0 0.00 0.00 0.00 95 1011.3
20260506011003 44 233 1.0 2.0 0.00 0.00 0.00 95 1011.2
20260506010503 44 230 0.0 2.0 0.00 0.00 0.00 95 1011.4
20260506010004 44 164 0.0 1.0 0.00 0.00 0.00 94 1011.3
20260506005504 45 196 0.0 1.0 0.00 0.00 0.00 93 1011.4
20260506005004 45 198 0.0 2.0 0.00 0.00 0.00 93 1011.3
20260506004505 45 213 0.0 2.0 0.00 0.00 0.00 93 1011.2
20260506004005 45 227 1.0 3.0 0.00 0.00 0.00 92 1011.4
20260506003526 45 226 1.0 3.0 0.00 0.00 0.00 92 1011.4
20260506003005 45 230 0.0 2.0 0.00 0.00 0.00 92 1011.5
20260506002504 45 232 1.0 2.0 0.00 0.00 0.00 92 1011.5
20260506002025 45 235 0.0 2.0 0.00 0.00 0.00 92 1011.5
20260506001504 45 241 0.0 1.0 0.00 0.00 0.00 93 1011.4
20260506001025 46 0 0.0 0.0 0.00 0.00 0.00 92 1011.4
20260506000525 46 0 0.0 0.0 0.00 0.00 0.00 92 1011.3
20260506000006 46 241 0.0 1.0 0.00 0.00 0.00 91 1011.5
20260505235504 46 241 0.0 1.0 0.00 0.00 0.00 91 1011.4
20260505235025 46 236 0.0 1.0 0.00 0.00 0.00 91 1011.5
20260505234504 46 227 0.0 2.0 0.00 0.00 0.00 91 1011.6
20260505234025 46 229 0.0 2.0 0.00 0.00 0.00 90 1011.5
20260505233504 47 231 1.0 2.0 0.00 0.00 0.00 90 1011.7
20260505233004 47 227 1.0 2.0 0.00 0.00 0.00 89 1011.7
20260505232504 47 227 0.0 1.0 0.00 0.00 0.00 90 1011.8
20260505232004 47 225 0.0 1.0 0.00 0.00 0.00 90 1011.7
20260505231504 47 228 0.0 2.0 0.00 0.00 0.00 90 1011.6
20260505231004 47 219 0.0 2.0 0.00 0.00 0.00 90 1011.8
20260505230504 48 172 1.0 2.0 0.00 0.00 0.00 89 1011.6
20260505230004 48 165 1.0 2.0 0.00 0.00 0.00 89 1011.6
20260505225525 47 208 0.0 1.0 0.00 0.00 0.00 88 1011.6
20260505225004 48 228 0.0 1.0 0.00 0.00 0.00 87 1011.5
20260505224504 48 225 1.0 2.0 0.00 0.00 0.00 87 1011.6
20260505224004 48 226 1.0 2.0 0.00 0.00 0.00 87 1011.6
20260505223504 48 229 1.0 2.0 0.00 0.00 0.00 86 1011.8
20260505223025 48 228 0.0 1.0 0.00 0.00 0.00 88 1011.6
20260505222504 48 224 0.0 1.0 0.00 0.00 0.00 88 1011.6
20260505222004 48 234 0.0 1.0 0.00 0.00 0.00 88 1011.7
20260505221525 49 241 0.0 1.0 0.00 0.00 0.00 88 1011.8
20260505221004 49 232 0.0 1.0 0.00 0.00 0.00 86 1011.7